map of ETHN home
ETHN - Airport
Location
City:  Niederstetten, Baden-Württemberg, Germany
ICAO:ETHN

Details
Type:Airport (Flugplatz, Airfield)
Use:Military
Latitude:49°23'31"N (49.391883)
Longitude:9°57'29"E (9.958183)
Elevation:1536 ft (468 m)
Variation:3.01°E (WMM2015v2 magnetic declination)
0.16° annual change
Runways:1
Longest:3320 × 98 ft (1012 × 30 m), paved

Time
Time Zone:UTC+1 (DST+2)
Local Time:

Weather
METAR:ETHN 041320Z 15008KT 9999 FEW035 BKN240 02/M06 Q1027 BLU+BLU+

Related Locations
Nearby:
Farthest:CHT: 11942 mi / 19219 km
Waitangi [Tuuta], CIT, NZ

Find:

   beyond  
but within

Other Information
Maps:
NOTAMs:
Links:
Sources:

  
  • flag of Germany
  • flag of Baden-Württemberg
  

Sectional Chart

Flight Planning
at skyvector.com

Satellite Image

Google Maps Satellite view

 

Copyright © 2004-2019 Karl L. Swartz. All rights reserved.
The Great Circle Mapper name and logo are trademarks of the Great Circle Mapper.
All other trademarks mentioned herein belong to their respective owners.
Please see credits for attibutions and further copyright information.

  Follow gcmap on Facebook Follow gcmap on Twitter GCmap on LinkedIn

hCard Microformat

Geo Microformat